Home > Weather > Angels Camp > Past weeks

Flag for USA Past Weather in Angels Camp, California, USA — Yesterday and Last 2 Weeks

Now
90 °F

Sunny.


Feels Like: 87 °F
Forecast: 58 / 104 °F
Wind: 14 mph from Northwest

Location: Modesto City-County-Sham Field

Current Time: Jun 29, 2016 at 8:27:36 PM

Latest Report: Jun 29, 2016 at 7:53 PM


Visibility: 10 mi

Pressure: 29.81 "Hg

Humidity: 24%

Dew Point: 49 °F

Location of Angels CampLocation

Past Weather in Angels Camp — Graph

°F

Angels Camp Temperature Yesterday

Maximum temperature yesterday: 106 °F (at 4:53 PM)
Minimum temperature yesterday: 73 °F (at 4:53 AM)
Average temperature yesterday: 89 °F

High & Low Weather Summary for the Past Weeks

 TemperatureHumidityPressure
High106 °F (Jun 28, 4:53 PM)75% (Jun 17, 5:53 AM)30.16 "Hg (Jun 17, 5:53 AM)
Low51 °F (Jun 15, 4:53 AM)7% (Jun 22, 6:53 PM)29.80 "Hg (Jun 29, 4:53 PM)
Average80 °F33%29.95 "Hg
* Reported Jun 14 6:53 PM — Jun 29 6:53 PM, Angels Camp, Weather by CustomWeather, © 2016

Note: Actual official high and low records may vary slightly from our data, if they occured in-between our weather recording intervals... More about our weather records

Advertising

Angels Camp Weather History for the Previous 24 Hours

Scroll right to see more
 ConditionsComfort  
Time TempWeatherWind HumidityBarometerVisibility
6:53 PM
Wed, Jun 29
95 °FPassing clouds.14 mph22%29.81 "Hg10 mi
5:53 PM99 °FPartly sunny.14 mph18%29.80 "Hg10 mi
4:53 PM102 °FPartly sunny.13 mph17%29.80 "Hg10 mi
3:53 PM101 °FSunny.12 mph19%29.82 "Hg10 mi
2:53 PM100 °FPassing clouds.12 mph20%29.84 "Hg10 mi
1:53 PM96 °FSunny.9 mph23%29.86 "Hg10 mi
12:53 PM93 °FSunny.13 mph25%29.88 "Hg10 mi
11:53 AM90 °FSunny.3 mph26%29.89 "Hg10 mi
10:53 AM88 °FSunny.8 mph25%29.90 "Hg10 mi
9:53 AM83 °FSunny.5 mph33%29.90 "Hg10 mi
8:53 AM81 °FSunny.9 mph32%29.89 "Hg10 mi
7:53 AM77 °FSunny.8 mph39%29.88 "Hg10 mi
6:53 AM73 °FSunny.6 mph44%29.86 "Hg10 mi
5:53 AM71 °FClear.3 mph47%29.86 "Hg10 mi
4:53 AM73 °FClear.6 mph44%29.85 "Hg10 mi
3:53 AM76 °FClear.3 mph36%29.83 "Hg10 mi
2:53 AM79 °FClear.7 mph31%29.83 "Hg10 mi
1:53 AM80 °FClear.6 mph28%29.83 "Hg10 mi
12:53 AM81 °FPleasantly warm.6 mph27%29.84 "Hg10 mi
11:53 PM
Tue, Jun 28
82 °FClear.5 mph27%29.85 "Hg10 mi
10:53 PM86 °FClear.6 mph15%29.85 "Hg10 mi
9:53 PM88 °FClear.7 mph16%29.86 "Hg10 mi
8:53 PM93 °FSunny.13 mph14%29.85 "Hg10 mi
Weather by CustomWeather, © 2016

See weather overviewHow to use our weather pages